User: anonymous   Login
Location: Unspecified
(0.0000°N, 0.0000°E)
Time: 12:52:58
(UTC+01:00)
Language:

Cosmos 1538 Rocket - Orbit

View from above orbital plane
View from above orbital plane
View from above satellite
View from above satellite

Ground track
Ground track

The orbit data is extracted from the following two-line orbital elements,

1 14760U 84019B   16341.87252913 -.00000001  00000-0  85873-5 0  9990
2 14760  74.0429 114.6346 0027635  19.4212  94.4598 14.35805214715985
Epoch (UTC): 06 December 2016 20:56:26
Eccentricity: 0.0027635
inclination: 74.0429°
perigee height: 752 km
apogee height: 792 km
right ascension of ascending node: 114.6346°
argument of perigee: 19.4212°
revolutions per day: 14.35805214
mean anomaly at epoch: 94.4598°
orbit number at epoch: 71598

The dashed part of the orbit path shows where the satellite is in the earth's shadow,  

DLR